Location: Auttagershofen
(48.1940°N, 10.0237°E)
Time: 03:32:28
(UTC+00:00)

Envisat - Visible Passes

Search period start: 09 March 2026 00:00
Search period end: 19 March 2026 00:00
Orbit: 761 x 763 km, 98.4° (Epoch: 8 March)

Date Brightness Start Highest point End Pass type
(mag) Time Alt. Az. Time Alt. Az. Time Alt. Az.
9 Mar 5.2 01:35:17 10° NNE 01:37:13 22° NE 01:37:13 22° NE visible
9 Mar 4.4 03:14:34 10° N 03:17:21 24° NNW 03:17:21 24° NNW visible
10 Mar 5.7 00:58:12 10° NE 00:59:06 14° NE 00:59:06 14° NE visible
10 Mar 4.2 02:36:20 10° N 02:39:14 33° N 02:39:14 33° N visible
10 Mar 5.1 04:18:40 10° NW 04:19:12 10° NW 04:19:22 10° NW visible
11 Mar 4.6 01:58:29 10° NNE 02:01:06 31° NNE 02:01:06 31° NNE visible
11 Mar 4.6 03:38:25 10° NNW 03:41:14 19° NW 03:41:14 19° NW visible
12 Mar 5.3 01:21:00 10° NNE 01:22:59 21° NE 01:22:59 21° NE visible
12 Mar 4.1 02:59:54 10° N 03:03:07 31° NNW 03:03:07 31° NNW visible
13 Mar 5.8 00:44:18 10° NE 00:44:51 12° NE 00:44:51 12° NE visible
13 Mar 4.1 02:21:49 10° N 02:24:59 39° N 02:24:59 39° N visible
13 Mar 4.9 04:02:40 10° NNW 04:04:59 13° NW 04:05:07 13° NW visible
14 Mar 4.6 01:44:05 10° NNE 01:46:52 31° NE 01:46:52 31° NE visible
14 Mar 4.3 03:23:36 10° N 03:27:00 24° NW 03:27:00 24° NW visible
15 Mar 5.4 01:06:49 10° NE 01:08:44 19° NE 01:08:44 19° NE visible
15 Mar 3.8 02:45:17 10° N 02:48:53 39° NNW 02:48:53 39° NNW visible
16 Mar 4.0 02:07:20 10° NNE 02:10:45 43° NNE 02:10:45 43° NNE visible
16 Mar 4.6 03:47:34 10° NNW 03:50:43 17° WNW 03:50:53 17° WNW visible
17 Mar 4.7 01:29:45 10° NNE 01:32:37 29° NE 01:32:37 29° NE visible
17 Mar 4.0 03:08:54 10° N 03:12:45 31° NW 03:12:45 31° NW visible
18 Mar 5.5 00:52:46 10° NE 00:54:29 16° ENE 00:54:29 16° ENE visible
18 Mar 3.5 02:30:44 10° N 02:34:38 49° NNW 02:34:38 49° NNW visible
18 Mar 5.0 04:12:13 10° NW 04:13:42 11° NW 04:14:46 11° WNW visible
